Vilnius International Airport

Airport
ICAO code: 
EYVI
IATA Code: 
VNTO
Summary
ICAO Region: 
EUR
Territory: 
Location: 
Porubanek, Vilnius District
Serving: 
Vilnius
Elevation: 
646 ft
Coordinates: 
Aerial View: 
54° 38' 12.984" N, 25° 17' 16.008" E
Metar
Observation
EYVI 210520Z 31012G22KT 280V350 1800 SN BLSN OVC012 M02/M04 Q0993 NOSIG
Station
Vilnius
Date/Time
2022-01-21 05:20:00
Wind direction
310°
Wind speed
12 kts
Lowest cloud amount
overcast
Temperature
-2°C
Dew point
-4°C
Humidity
86%
QNH
993 hPa
Weather condition
n/a

Vilnius Airport is the largest civil airport in Lithuania. It is located 5.9 km south of Vilnius, the capital of Lithuania.

Climatology

Humid continental climate (Köppen climate classification Dfb)

Runways

Designator Length Width Surface Rops
2/20 2515 50 ASP Yes/Yes
Airport map: 
Aerial View: 

SKYbrary Partners:

Safety knowledge contributed by: